Stations météo

Publicité
Romorantin, France (7247): Température de l'air & dewpoint: 17.03.2019 23:00:00 - 23.03.2019 23:00:00 (CET)Romorantin, France (7247): Température de l'air 5cm: 17.03.2019 23:00:00 - 23.03.2019 23:00:00 (CET)Romorantin, France (7247): Température de l'air -20cm & Température de l'air -100cm: 17.03.2019 23:00:00 - 23.03.2019 23:00:00 (CET)Romorantin, France (7247): Vitesse du vent & gusts: 17.03.2019 23:00:00 - 23.03.2019 23:00:00 (CET)Romorantin, France (7247): Direction du vent: 17.03.2019 23:00:00 - 23.03.2019 23:00:00 (CET)Romorantin, France (7247): reduced air pressure: 17.03.2019 23:00:00 - 23.03.2019 23:00:00 (CET)Romorantin, France (7247): visibility: 17.03.2019 23:00:00 - 23.03.2019 23:00:00 (CET)Romorantin, France (7247): Quantités de précipitations: 17.03.2019 23:00:00 - 23.03.2019 23:00:00 (CET)
Date & Time tt [°C] td [°C] tt 5cm [°C] tt -20cm [°C] tt -100cm [°C] ff [km/h] ff [knt] fx [km/h] fx [knt] dd ppp [hPa] vv [km] rr [mm]
23.03.2019 23:00:00 2,7 1,7 -0,6 9,8 9,4 0 0 2 1 N 1028,6 4,0 0,0
23.03.2019 22:00:00 4,9 3,1 1,0 9,8 9,4 0 0 5 3 N 1028,8 6 0,0
23.03.2019 21:00:00 10,0 3,9 4,6 9,8 9,4 3 2 9 5 N 1028,5 11 0,0
23.03.2019 20:00:00 12,3 5,2 9,4 9,7 9,4 5 3 16 9 N 1028,0 13 0,0
23.03.2019 19:00:00 14,5 4,8 12,7 9,5 9,3 8 5 20 11 NNW 1027,6 17 0,0
23.03.2019 18:00:00 16,4 5,4 17,1 9,4 9,3 9 5 23 12 N 1027,2 16 0,0
23.03.2019 17:00:00 17,5 5,7 20,1 9,1 9,4 10 6 26 14 N 1027,0 14 0,0
23.03.2019 16:00:00 18,3 4,8 22,2 8,9 9,4 10 5 25 14 N 1027,3 18 0,0
23.03.2019 15:00:00 18,5 4,6 23,5 8,7 9,4 11 6 24 13 N 1027,6 19 0,0
23.03.2019 14:00:00 19,0 2,8 24,5 8,5 9,4 7 4 35 19 N 1028,2 19 0,0
23.03.2019 13:00:00 18,1 3,5 23,4 8,3 9,3 6 3 16 9 E 1028,7 19 0,0
23.03.2019 12:00:00 16,8 3,5 21,2 8,2 9,3 4 2 14 7 N 1029,1 17 0,0
23.03.2019 11:00:00 14,9 4,6 19,6 8,2 9,4 8 5 13 7 E 1029,5 16 0,0
23.03.2019 10:00:00 11,8 4,7 11,8 8,2 9,3 0 0 6 3 N 1029,8 17 0,0
23.03.2019 09:00:00 6,1 1,8 4,9 8,3 9,3 3 2 5 3 NNW 1030,0 20 0,0
23.03.2019 08:00:00 0,7 0,1 -4,9 8,5 9,4 0 0 0 0 N 1030,0 20 0,0
23.03.2019 07:00:00 -3,2 -3,9 -5,1 8,6 9,4 0 0 2 1 N 1029,9 5 0,0
23.03.2019 06:00:00 -2,3 -2,6 -4,9 8,7 9,3 0 0 2 1 N 1029,4 14 0,0
23.03.2019 05:00:00 -2,4 -3,1 -4,3 8,9 9,3 0 0 2 1 N 1029,4 19 0,0
23.03.2019 04:00:00 -2,3 -4,0 -4,1 9,0 9,3 0 0 4 2 N 1029,5 20 0,0
23.03.2019 03:00:00 -1,7 -2,8 -3,6 9,1 9,3 0 0 2 1 N 1029,6 20 0,0
23.03.2019 02:00:00 -0,1 -1,0 -2,9 9,3 9,3 0 0 0 0 N 1029,5 20 0,0
23.03.2019 01:00:00 0,6 -0,1 -2,2 9,4 9,3 0 0 0 0 N 1029,2 20 0,0
23.03.2019 00:00:00 0,9 -1,2 -1,9 9,5 9,3 0 0 3 1 N 1029,3 20 0,0
22.03.2019 23:00:00 2,0 -0,3 -1,1 9,6 9,3 0 0 3 1 N 1029,3 20 0,0
22.03.2019 22:00:00 3,8 1,0 -0,1 9,6 9,3 0 0 0 0 N 1029,1 20 0,0
22.03.2019 21:00:00 5,2 0,6 1,6 9,6 9,3 0 0 3 2 N 1028,6 20 0,0
22.03.2019 20:00:00 8,8 1,7 3,9 9,5 9,3 0 0 4 2 N 1028,4 20 0,0
22.03.2019 19:00:00 15,4 0,4 9,6 9,3 9,3 4 2 13 7 WSW 1027,5 20 0,0
22.03.2019 18:00:00 19,0 -1,0 20,1 9,1 9,3 9 5 17 9 WNW 1027,3 20 0,0
22.03.2019 17:00:00 19,3 -1,2 22,8 8,9 9,4 8 5 21 11 WSW 1027,2 20 0,0
22.03.2019 16:00:00 19,2 -1,9 23,9 8,6 9,3 13 7 24 13 WSW 1027,5 20 0,0
22.03.2019 15:00:00 19,2 0,7 25,3 8,4 9,3 12 7 21 11 S 1027,8 20 0,0
22.03.2019 14:00:00 18,5 1,5 24,5 8,1 9,3 9 5 24 13 S 1028,4 20 0,0
22.03.2019 13:00:00 17,4 0,5 24,0 8,0 9,3 8 4 21 11 SW 1029,1 20 0,0
22.03.2019 12:00:00 16,2 1,9 21,2 7,9 9,3 8 5 23 13 S 1029,2 19 0,0
22.03.2019 11:00:00 14,2 2,7 17,9 7,9 9,3 9 5 17 9 SSE 1029,7 20 0,0
22.03.2019 10:00:00 11,2 3,9 11,9 8,0 9,3 3 2 7 4 SSW 1029,9 18 0,0
22.03.2019 09:00:00 5,6 2,2 4,2 8,0 9,3 0 0 4 2 N 1030,1 15 0,0
22.03.2019 08:00:00 -0,3 -0,7 -6,2 8,2 9,3 0 0 3 2 N 1029,9 7 0,0
22.03.2019 07:00:00 -3,8 -4,2 -6,4 8,3 9,3 0 0 3 2 N 1029,8 3,1 0,0
22.03.2019 06:00:00 -3,5 -3,9 -5,9 8,5 9,3 0 0 2 1 N 1029,6 1,6 0,0
22.03.2019 05:00:00 -3,4 -4,2 -5,6 8,6 9,3 0 0 3 2 N 1029,7 4,7 0,0
22.03.2019 04:00:00 -1,9 -2,2 -4,9 8,8 9,3 0 0 0 0 N 1029,5 9 0,0
22.03.2019 03:00:00 -1,2 -2,0 -4,4 8,9 9,3 0 0 3 1 N 1029,7 14 0,0
22.03.2019 02:00:00 -0,8 -2,4 -3,7 9,1 9,3 0 0 3 2 N 1030,0 20 0,0
22.03.2019 01:00:00 -0,4 -1,2 -3,4 9,2 9,3 2 1 3 2 E 1030,1 20 0,0
22.03.2019 00:00:00 0,8 -1,3 -2,4 9,3 9,3 0 0 4 2 N 1030,3 20 0,0
21.03.2019 23:00:00 1,4 -1,3 -1,8 9,4 9,3 0 0 3 2 N 1030,5 20 0,0
21.03.2019 22:00:00 3,4 -0,1 -0,2 9,4 9,3 0 0 6 4 N 1030,6 20 0,0
21.03.2019 21:00:00 6,2 -1,0 1,4 9,4 9,3 4 2 10 5 NE 1030,3 20 0,0
21.03.2019 20:00:00 12,3 -2,0 6,8 9,3 9,3 7 4 18 10 NNE 1029,9 20 0,0
21.03.2019 19:00:00 14,5 -2,5 11,5 9,2 9,3 11 6 27 14 NE 1029,6 20 0,0
21.03.2019 18:00:00 16,7 -2,4 17,4 9,0 9,3 12 7 29 16 NE 1029,2 20 0,0
21.03.2019 17:00:00 17,5 -3,3 20,0 8,8 9,3 15 8 31 17 NNE 1029,3 20 0,0
21.03.2019 16:00:00 18,1 -2,8 22,1 8,6 9,3 16 8 38 20 NE 1029,6 20 0,0
21.03.2019 15:00:00 17,5 -2,8 22,0 8,4 9,3 11 6 36 19 N 1030,1 20 0,0
21.03.2019 14:00:00 17,1 -3,1 21,8 8,3 9,3 13 7 30 16 NNE 1030,8 20 0,0
21.03.2019 13:00:00 16,1 -2,4 20,0 8,1 9,3 17 9 33 18 NNE 1031,5 20 0,0
21.03.2019 12:00:00 15,3 -1,3 18,2 8,1 9,3 15 8 39 21 NE 1032,1 20 0,0
21.03.2019 11:00:00 14,1 -0,8 16,1 8,0 9,3 22 12 34 19 NE 1032,4 20 0,0
21.03.2019 10:00:00 11,4 2,9 11,0 8,0 9,3 14 7 25 13 NE 1032,9 20 0,0
21.03.2019 09:00:00 8,1 4,5 4,6 8,1 9,3 9 5 21 11 NE 1033,1 18 0,0
21.03.2019 08:00:00 0,4 0,3 -4,9 8,3 9,3 4 2 8 4 SE 1033,6 4,7 0,0
21.03.2019 07:00:00 -3,0 -3,8 -5,2 8,4 9,3 0 0 4 2 N 1033,6 0,5 0,0
21.03.2019 06:00:00 -1,7 -2,0 -4,6 8,5 9,3 0 0 4 2 N 1033,4 6 0,0
21.03.2019 05:00:00 -0,7 -1,0 -3,9 8,7 9,3 0 0 2 1 N 1033,4 6 0,0
21.03.2019 04:00:00 -0,3 -0,4 -3,3 8,8 9,3 0 0 0 0 N 1033,4 2,8 0,0
21.03.2019 03:00:00 -0,2 -0,5 -2,9 8,9 9,3 0 0 2 1 N 1033,7 4,8 0,0
21.03.2019 02:00:00 0,5 0,4 -2,4 9,0 9,3 0 0 0 0 N 1034,0 0,6 0,0
21.03.2019 01:00:00 1,1 0,7 -2,0 9,1 9,3 0 0 0 0 N 1034,0 0,2 0,0
21.03.2019 00:00:00 2,4 2,0 -1,0 9,1 9,3 0 0 0 0 N 1034,2 16 0,0
20.03.2019 23:00:00 3,4 1,0 0,3 9,1 9,3 0 0 3 1 N 1034,0 20 0,0
20.03.2019 22:00:00 6,4 3,2 1,9 9,1 9,3 2 1 4 2 NNE 1034,0 18 0,0
20.03.2019 21:00:00 10,7 3,7 7,9 9,1 9,3 2 1 11 6 N 1033,7 20 0,0
20.03.2019 20:00:00 11,9 3,6 10,4 9,0 9,3 5 3 20 11 N 1033,4 20 0,0
20.03.2019 19:00:00 12,8 3,4 11,9 8,9 9,3 9 5 24 13 N 1033,1 20 0,0
20.03.2019 18:00:00 14,0 1,9 13,5 8,7 9,3 10 5 28 15 N 1032,7 20 0,0
20.03.2019 17:00:00 15,3 1,4 16,0 8,5 9,3 11 6 26 14 NNE 1032,4 20 0,0
20.03.2019 16:00:00 15,4 1,5 17,9 8,3 9,3 9 5 30 16 NE 1032,7 20 0,0
20.03.2019 15:00:00 14,5 1,4 16,3 8,1 9,3 13 7 27 15 NE 1033,2 20 0,0
20.03.2019 14:00:00 14,4 1,6 14,8 7,9 9,3 13 7 23 12 NE 1033,7 20 0,0
20.03.2019 13:00:00 13,3 1,3 15,3 7,8 9,3 11 6 24 13 NE 1034,3 20 0,0
20.03.2019 12:00:00 13,2 3,0 17,0 7,7 9,3 8 5 18 10 ENE 1034,7 20 0,0
20.03.2019 11:00:00 10,8 3,3 14,6 7,7 9,3 7 4 11 6 E 1035,0 19 0,0
20.03.2019 10:00:00 7,6 3,4 7,6 7,8 9,3 0 0 5 3 N 1035,2 19 0,0
20.03.2019 09:00:00 2,7 1,5 1,0 7,9 9,3 2 1 4 2 W 1035,2 17 0,0
20.03.2019 08:00:00 -0,7 -0,7 -5,4 8,0 9,3 0 0 4 2 N 1034,6 20 0,0
20.03.2019 07:00:00 -3,3 -3,6 -6,0 8,2 9,3 2 1 3 1 ENE 1034,4 6 0,0
20.03.2019 06:00:00 -3,0 -3,3 -5,5 8,3 9,3 0 0 4 2 N 1034,1 16 0,0
20.03.2019 05:00:00 -3,4 -3,8 -5,7 8,4 9,3 0 0 4 2 N 1033,9 20 0,0
20.03.2019 04:00:00 -3,3 -3,8 -5,4 8,6 9,3 0 0 2 1 N 1033,5 0,8 0,0
20.03.2019 03:00:00 -2,3 -2,4 -4,9 8,7 9,3 0 0 4 2 N 1033,7 1,4 0,0
20.03.2019 02:00:00 -2,7 -3,1 -4,6 8,8 9,3 2 1 3 2 SSW 1033,8 20 0,0
20.03.2019 01:00:00 -2,0 -2,6 -4,4 9,0 9,3 0 0 0 0 N 1033,7 3,5 0,0
20.03.2019 00:00:00 -1,0 -1,6 -3,7 9,1 9,3 0 0 3 2 N 1033,7 20 0,0
19.03.2019 23:00:00 0,1 -0,9 -2,8 9,2 9,3 0 0 3 2 N 1033,2 20 0,0
19.03.2019 22:00:00 0,4 -0,9 -2,7 9,2 9,3 0 0 3 2 N 1032,4 20 0,0
19.03.2019 21:00:00 1,7 -0,1 -1,2 9,2 9,3 0 0 3 2 N 1032,0 20 0,0
19.03.2019 20:00:00 5,8 0,1 1,1 9,2 9,3 0 0 7 4 N 1030,9 20 0,0
19.03.2019 19:00:00 11,0 0,1 9,2 9,1 9,3 5 3 14 8 NNW 1030,1 20 0,0
19.03.2019 18:00:00 12,6 0,0 12,3 9,0 9,3 9 5 21 12 N 1029,4 20 0,0
19.03.2019 17:00:00 12,4 0,5 12,8 8,8 9,3 13 7 25 14 N 1029,3 20 0,0
19.03.2019 16:00:00 11,6 0,4 12,3 8,7 9,3 5 3 18 10 N 1029,3 20 0,0
19.03.2019 15:00:00 12,2 0,3 12,5 8,5 9,3 8 4 22 12 NE 1029,4 20 0,0
19.03.2019 14:00:00 12,8 1,5 12,4 8,4 9,3 11 6 22 12 E 1029,4 20 0,0
19.03.2019 13:00:00 11,5 2,8 12,6 8,2 9,3 5 3 16 9 N 1029,9 20 0,0
19.03.2019 12:00:00 10,7 1,8 13,5 8,2 9,3 4 2 13 7 E 1029,9 19 0,0
19.03.2019 11:00:00 7,9 5,0 10,8 8,2 9,3 5 3 15 8 SE 1029,6 15 0,0
19.03.2019 10:00:00 5,3 5,0 4,7 8,3 9,3 4 2 8 5 NNE 1029,8 10 0,0
19.03.2019 09:00:00 1,7 1,7 0,5 8,3 9,3 0 0 4 2 N 1029,1 0,2 0,0
19.03.2019 08:00:00 -0,3 -0,3 -0,4 8,5 9,3 0 0 0 0 N 1028,9 0,4 0,0
19.03.2019 07:00:00 -0,3 -0,3 -0,6 8,6 9,3 0 0 6 4 N 1028,3 0,3 0,0
19.03.2019 06:00:00 0,6 0,6 -0,4 8,6 9,3 4 2 8 4 W 1028,0 0,2 0,0
19.03.2019 05:00:00 0,7 0,7 -0,7 8,7 9,3 2 1 4 2 WSW 1027,4 0,1 0,0
19.03.2019 04:00:00 0,9 0,8 -0,4 8,8 9,3 0 0 3 1 N 1027,1 0,2 0,0
19.03.2019 03:00:00 2,0 1,9 0,4 8,9 9,3 0 0 0 0 N 1027,0 0,2 0,0
19.03.2019 02:00:00 2,8 2,8 1,2 8,9 9,3 0 0 2 1 N 1026,9 0,4 0,0
19.03.2019 01:00:00 2,8 2,7 0,9 9,0 9,3 0 0 4 2 N 1026,6 0,1 0,0
19.03.2019 00:00:00 3,0 2,7 1,9 9,0 9,3 3 1 4 2 SSW 1026,5 0,2 0,0
18.03.2019 23:00:00 3,7 3,3 1,9 9,1 9,3 0 0 5 3 N 1026,5 0,3 0,0
18.03.2019 22:00:00 5,6 5,3 4,3 9,1 9,3 4 2 6 4 WSW 1026,2 14 0,0
18.03.2019 21:00:00 5,8 5,1 4,7 9,1 9,3 0 0 8 4 N 1025,9 20 0,4
18.03.2019 20:00:00 6,3 5,4 5,9 9,0 9,2 7 4 35 19 NNW 1025,6 9 2,4
18.03.2019 19:00:00 8,4 3,4 7,8 9,0 9,3 5 3 21 11 W 1024,6 20 0,0
18.03.2019 18:00:00 9,0 3,2 9,0 8,9 9,3 7 4 29 16 WSW 1024,2 20 0,0
18.03.2019 17:00:00 10,4 1,0 10,3 8,8 9,3 17 9 30 16 WNW 1023,7 20 0,0
18.03.2019 16:00:00 11,1 2,6 13,0 8,7 9,3 12 7 31 17 NNW 1023,4 20 0,0
18.03.2019 15:00:00 11,4 1,6 12,1 8,6 9,3 8 5 25 14 NNW 1023,7 20 0,0
18.03.2019 14:00:00 12,0 2,4 12,6 8,5 9,3 11 6 27 15 W 1024,2 20 0,0
18.03.2019 13:00:00 11,7 4,2 14,1 8,4 9,3 13 7 28 15 W 1024,6 20 0,0
18.03.2019 12:00:00 10,1 4,0 11,8 8,3 9,3 11 6 21 11 WNW 1024,8 20 0,0
18.03.2019 11:00:00 9,7 4,9 10,9 8,3 9,2 10 5 19 11 W 1024,9 19 0,0
18.03.2019 10:00:00 7,7 4,8 7,6 8,4 9,2 8 4 14 8 W 1024,7 20 0,0
18.03.2019 09:00:00 5,2 3,4 5,0 8,4 9,2 7 4 14 8 W 1024,2 20 0,0
18.03.2019 08:00:00 3,9 2,7 2,1 8,5 9,2 6 3 11 6 SW 1023,5 20 0,0
18.03.2019 07:00:00 3,5 2,3 1,9 8,6 9,2 5 3 15 8 WSW 1023,0 20 0,0
18.03.2019 06:00:00 4,0 2,3 2,7 8,7 9,2 9 5 20 11 W 1022,3 20 0,0
18.03.2019 05:00:00 4,4 2,7 1,7 8,8 9,2 10 5 18 10 W 1021,7 20 0,0
18.03.2019 04:00:00 3,1 2,2 0,6 8,9 9,2 5 3 13 7 SW 1021,6 20 0,0
18.03.2019 03:00:00 3,1 2,1 0,9 9,0 9,2 9 5 16 9 WSW 1021,4 20 0,0
18.03.2019 02:00:00 3,2 2,5 0,0 9,1 9,2 8 5 17 9 WSW 1021,3 20 0,0
18.03.2019 01:00:00 3,0 2,4 0,0 9,2 9,2 5 3 13 7 WSW 1021,1 20 0,0
18.03.2019 00:00:00 3,6 2,7 1,8 9,3 9,2 9 5 16 9 WSW 1021,0 20 0,0
17.03.2019 23:00:00 3,8 2,6 2,2 9,4 9,2 9 5 18 10 WSW 1020,6 20 0,0

tt = Température de l'air
td = dewpoint
tt 5cm = Température de l'air 5cm
tt -20cm = Température de l'air -20cm
tt -100cm = Température de l'air -100cm
ff = Vitesse du vent
fx = gusts
dd = Direction du vent
ppp = reduced air pressure
vv = visibility
rr = Quantités de précipitations

stations d'obs. à proximité